| time (UTC) | temp F | wind direction | speed knots | gust knots | rain 1hr in | rain 24hr in | rain mn in | humidity % | barometer mb |
| 20260504231825 | 68 | 258 | 0.0 | 0.0 | 0.00 | 0.00 | 0.00 | 40 | 1005.5 |
| 20260504231323 | 69 | 205 | 0.0 | 0.0 | 0.00 | 0.00 | 0.00 | 39 | 1005.4 |
| 20260504230845 | 69 | 245 | 0.0 | 0.0 | 0.00 | 0.00 | 0.00 | 39 | 1005.4 |
| 20260504230323 | 69 | 226 | 0.0 | 0.0 | 0.00 | 0.00 | 0.00 | 38 | 1005.3 |
| 20260504225839 | 69 | 224 | 0.0 | 0.0 | 0.00 | 0.00 | 0.00 | 38 | 1005.3 |
| 20260504225316 | 69 | 267 | 0.0 | 5.2 | 0.00 | 0.00 | 0.00 | 38 | 1005.2 |
| 20260504224815 | 69 | 215 | 0.9 | 5.2 | 0.00 | 0.00 | 0.00 | 38 | 1005.2 |
| 20260504224333 | 69 | 177 | 0.0 | 4.3 | 0.00 | 0.00 | 0.00 | 38 | 1005.2 |
| 20260504223851 | 69 | 266 | 0.0 | 5.2 | 0.00 | 0.00 | 0.00 | 38 | 1005.3 |
| 20260504223330 | 70 | 197 | 0.0 | 8.7 | 0.00 | 0.00 | 0.00 | 38 | 1005.4 |
| 20260504222829 | 70 | 184 | 1.7 | 8.7 | 0.00 | 0.00 | 0.00 | 37 | 1005.4 |
| 20260504222326 | 70 | 168 | 0.0 | 7.0 | 0.00 | 0.00 | 0.00 | 38 | 1005.3 |
| 20260504221825 | 70 | 136 | 0.0 | 7.0 | 0.00 | 0.00 | 0.00 | 37 | 1005.2 |
| 20260504221324 | 70 | 253 | 0.0 | 7.8 | 0.00 | 0.00 | 0.00 | 37 | 1005.2 |
| 20260504220822 | 70 | 235 | 0.9 | 9.6 | 0.00 | 0.00 | 0.00 | 37 | 1005.3 |
| 20260504220321 | 70 | 215 | 0.9 | 9.6 | 0.00 | 0.00 | 0.00 | 37 | 1005.4 |
| 20260504215819 | 71 | 227 | 1.7 | 9.6 | 0.00 | 0.00 | 0.00 | 37 | 1005.3 |
| 20260504215317 | 70 | 267 | 0.0 | 7.8 | 0.00 | 0.00 | 0.00 | 38 | 1005.3 |
| 20260504214817 | 71 | 205 | 0.9 | 7.8 | 0.00 | 0.00 | 0.00 | 38 | 1005.4 |
| 20260504214315 | 71 | 224 | 0.9 | 6.1 | 0.00 | 0.00 | 0.00 | 37 | 1005.4 |
| 20260504213815 | 70 | 185 | 0.0 | 10.4 | 0.00 | 0.00 | 0.00 | 37 | 1005.4 |
| 20260504213315 | 70 | 128 | 2.6 | 10.4 | 0.00 | 0.00 | 0.00 | 38 | 1005.5 |
| 20260504212835 | 70 | 242 | 0.0 | 8.7 | 0.00 | 0.00 | 0.00 | 38 | 1005.4 |
| 20260504212352 | 70 | 210 | 0.0 | 8.7 | 0.00 | 0.00 | 0.00 | 38 | 1005.4 |
| 20260504211830 | 69 | 324 | 0.0 | 8.7 | 0.00 | 0.00 | 0.00 | 39 | 1005.5 |
| 20260504211330 | 70 | 233 | 1.7 | 8.7 | 0.00 | 0.00 | 0.00 | 37 | 1005.5 |
| 20260504210828 | 70 | 249 | 1.7 | 7.0 | 0.00 | 0.00 | 0.00 | 38 | 1005.6 |
| 20260504210347 | 69 | 219 | 0.0 | 12.2 | 0.00 | 0.00 | 0.00 | 39 | 1005.6 |
| 20260504205825 | 70 | 208 | 0.9 | 13.0 | 0.00 | 0.00 | 0.00 | 37 | 1005.7 |
| 20260504205325 | 71 | 235 | 5.2 | 13.0 | 0.00 | 0.00 | 0.00 | 36 | 1005.7 |
| 20260504204825 | 71 | 216 | 0.0 | 10.4 | 0.00 | 0.00 | 0.00 | 38 | 1005.6 |
| 20260504204343 | 70 | 250 | 0.0 | 12.2 | 0.00 | 0.00 | 0.00 | 38 | 1005.6 |
| 20260504203844 | 70 | 231 | 0.9 | 12.2 | 0.00 | 0.00 | 0.00 | 37 | 1005.7 |
| 20260504203322 | 71 | 223 | 0.0 | 5.2 | 0.00 | 0.00 | 0.00 | 36 | 1005.9 |
| 20260504202840 | 71 | 212 | 0.0 | 8.7 | 0.00 | 0.00 | 0.00 | 37 | 1005.8 |
| 20260504202318 | 69 | 203 | 0.9 | 8.7 | 0.00 | 0.00 | 0.00 | 39 | 1005.9 |
| 20260504201817 | 69 | 251 | 0.0 | 6.1 | 0.00 | 0.00 | 0.00 | 38 | 1005.9 |
| 20260504201315 | 69 | 282 | 0.9 | 8.7 | 0.00 | 0.00 | 0.00 | 38 | 1006.1 |
| 20260504200814 | 70 | 218 | 0.0 | 10.4 | 0.00 | 0.00 | 0.00 | 37 | 1006.0 |
| 20260504200315 | 69 | 216 | 0.0 | 10.4 | 0.00 | 0.00 | 0.00 | 38 | 1006.3 |
| 20260504195833 | 69 | 147 | 1.7 | 7.0 | 0.00 | 0.00 | 0.00 | 39 | 1006.3 |
| 20260504195332 | 68 | 255 | 0.0 | 0.0 | 0.00 | 0.00 | 0.00 | 40 | 1006.3 |
| 20260504194849 | 68 | 169 | 0.0 | 0.0 | 0.00 | 0.00 | 0.00 | 40 | 1006.4 |
| 20260504194327 | 68 | 283 | 0.0 | 8.7 | 0.00 | 0.00 | 0.00 | 40 | 1006.4 |
| 20260504193846 | 68 | 207 | 1.7 | 9.6 | 0.00 | 0.00 | 0.00 | 40 | 1006.5 |
| 20260504193326 | 68 | 259 | 0.0 | 9.6 | 0.00 | 0.00 | 0.00 | 40 | 1006.6 |
| 20260504192824 | 68 | 237 | 0.0 | 12.2 | 0.00 | 0.00 | 0.00 | 40 | 1006.6 |
| 20260504192338 | 68 | 212 | 4.3 | 12.2 | 0.00 | 0.00 | 0.00 | 39 | 1006.6 |
| 20260504191815 | 68 | 243 | 2.6 | 12.2 | 0.00 | 0.00 | 0.00 | 39 | 1006.5 |
| 20260504191315 | 69 | 212 | 1.7 | 9.6 | 0.00 | 0.00 | 0.00 | 39 | 1006.6 |
| 20260504190814 | 69 | 195 | 0.0 | 0.0 | 0.00 | 0.00 | 0.00 | 39 | 1006.7 |
| 20260504190315 | 69 | 196 | 0.0 | 8.7 | 0.00 | 0.00 | 0.00 | 39 | 1006.7 |
| 20260504185813 | 69 | 280 | 0.9 | 8.7 | 0.00 | 0.00 | 0.00 | 39 | 1006.8 |
| 20260504185313 | 69 | 284 | 0.0 | 13.0 | 0.00 | 0.00 | 0.00 | 39 | 1006.7 |
| 20260504184831 | 69 | 257 | 3.5 | 13.0 | 0.00 | 0.00 | 0.00 | 38 | 1006.8 |
| 20260504184330 | 69 | 253 | 0.9 | 10.4 | 0.00 | 0.00 | 0.00 | 39 | 1006.8 |
| 20260504183848 | 70 | 219 | 1.7 | 9.6 | 0.00 | 0.00 | 0.00 | 38 | 1006.8 |
| 20260504183348 | 69 | 218 | 0.9 | 18.2 | 0.00 | 0.00 | 0.00 | 39 | 1006.8 |
| 20260504182823 | 69 | 255 | 0.0 | 18.2 | 0.00 | 0.00 | 0.00 | 40 | 1006.8 |
| 20260504182320 | 68 | 218 | 2.6 | 12.2 | 0.00 | 0.00 | 0.00 | 40 | 1006.9 |
| 20260504181840 | 68 | 214 | 0.0 | 8.7 | 0.00 | 0.00 | 0.00 | 41 | 1006.9 |
| 20260504181337 | 68 | 268 | 1.7 | 10.4 | 0.00 | 0.00 | 0.00 | 40 | 1006.9 |
| 20260504180815 | 68 | 239 | 3.5 | 13.9 | 0.00 | 0.00 | 0.00 | 41 | 1007.0 |
| 20260504180315 | 68 | 244 | 1.7 | 16.5 | 0.00 | 0.00 | 0.00 | 40 | 1006.9 |
| 20260504175834 | 68 | 183 | 4.3 | 16.5 | 0.00 | 0.00 | 0.00 | 41 | 1007.0 |
| 20260504175352 | 68 | 220 | 3.5 | 11.3 | 0.00 | 0.00 | 0.00 | 42 | 1007.0 |
| 20260504174831 | 67 | 220 | 1.7 | 12.2 | 0.00 | 0.00 | 0.00 | 43 | 1007.0 |
| 20260504174328 | 66 | 219 | 2.6 | 13.0 | 0.00 | 0.00 | 0.00 | 42 | 1007.0 |
| 20260504173827 | 67 | 166 | 3.5 | 13.0 | 0.00 | 0.00 | 0.00 | 42 | 1007.1 |
| 20260504173327 | 67 | 241 | 0.0 | 8.7 | 0.00 | 0.00 | 0.00 | 44 | 1007.0 |
| 20260504172826 | 66 | 235 | 3.5 | 9.6 | 0.00 | 0.00 | 0.00 | 42 | 1007.1 |
| 20260504172325 | 67 | 220 | 1.7 | 9.6 | 0.00 | 0.00 | 0.00 | 42 | 1007.0 |
| 20260504171823 | 67 | 190 | 0.9 | 10.4 | 0.00 | 0.00 | 0.00 | 42 | 1007.0 |
| 20260504171323 | 66 | 246 | 0.0 | 10.4 | 0.00 | 0.00 | 0.00 | 44 | 1007.1 |
| 20260504170823 | 66 | 220 | 0.0 | 16.5 | 0.00 | 0.00 | 0.00 | 43 | 1007.3 |
| 20260504170343 | 66 | 257 | 7.0 | 16.5 | 0.00 | 0.00 | 0.00 | 42 | 1007.3 |
| 20260504160318 | 64 | 256 | 0.0 | 6.1 | 0.00 | 0.00 | 0.00 | 46 | 1008.0 |
| 20260504150842 | 60 | 233 | 1.7 | 12.2 | 0.00 | 0.00 | 0.00 | 48 | 1008.6 |
| 20260504150319 | 60 | 195 | 2.6 | 9.6 | 0.00 | 0.00 | 0.00 | 47 | 1008.6 |
| 20260504141325 | 57 | 297 | 0.0 | 13.9 | 0.00 | 0.00 | 0.00 | 51 | 1008.8 |
| 20260504140823 | 57 | 224 | 5.2 | 13.9 | 0.00 | 0.00 | 0.00 | 50 | 1008.9 |
| 20260504140323 | 56 | 203 | 0.0 | 11.3 | 0.00 | 0.00 | 0.00 | 51 | 1008.9 |
| 20260504130323 | 52 | 208 | 0.0 | 5.2 | 0.00 | 0.00 | 0.00 | 55 | 1009.5 |
| 20260504110318 | 45 | 162 | 0.0 | 6.1 | 0.00 | 0.00 | 0.00 | 69 | 1010.0 |
| 20260504100322 | 38 | 329 | 0.0 | 0.0 | 0.00 | 0.00 | 0.00 | 86 | 1009.7 |
| 20260504081813 | 38 | 340 | 0.0 | 0.0 | 0.00 | 0.00 | 0.00 | 85 | 1009.8 |
| 20260504081332 | 38 | 340 | 0.0 | 0.0 | 0.00 | 0.00 | 0.00 | 85 | 1009.8 |
| 20260504080832 | 38 | 340 | 0.0 | 0.0 | 0.00 | 0.00 | 0.00 | 85 | 1009.8 |
| 20260504080331 | 38 | 340 | 0.0 | 0.0 | 0.00 | 0.00 | 0.00 | 85 | 1009.8 |
| 20260504070314 | 40 | 343 | 0.0 | 0.0 | 0.00 | 0.00 | 0.00 | 82 | 1009.7 |
| 20260504050339 | 47 | 215 | 0.0 | 0.0 | 0.00 | 0.00 | 0.00 | 73 | 1009.7 |
| 20260504045816 | 47 | 215 | 0.0 | 0.0 | 0.00 | 0.00 | 0.00 | 73 | 1009.7 |
| 20260504045314 | 47 | 215 | 0.0 | 0.0 | 0.00 | 0.00 | 0.00 | 72 | 1009.7 |
| 20260504044814 | 47 | 215 | 0.0 | 0.0 | 0.00 | 0.00 | 0.00 | 72 | 1009.8 |
| 20260504044313 | 47 | 215 | 0.0 | 0.0 | 0.00 | 0.00 | 0.00 | 71 | 1009.7 |
| 20260504043831 | 47 | 215 | 0.0 | 0.0 | 0.00 | 0.00 | 0.00 | 70 | 1009.8 |
| 20260504043330 | 48 | 215 | 0.0 | 0.0 | 0.00 | 0.00 | 0.00 | 69 | 1009.8 |
| 20260504042828 | 48 | 215 | 0.0 | 0.0 | 0.00 | 0.00 | 0.00 | 68 | 1009.8 |
| 20260504042325 | 49 | 215 | 0.0 | 0.0 | 0.00 | 0.00 | 0.00 | 66 | 1009.8 |
| 20260504041824 | 49 | 215 | 0.0 | 0.0 | 0.00 | 0.00 | 0.00 | 64 | 1009.9 |
| 20260504041324 | 49 | 215 | 0.0 | 0.0 | 0.00 | 0.00 | 0.00 | 63 | 1009.9 |
| 20260504040838 | 50 | 215 | 0.0 | 0.0 | 0.00 | 0.00 | 0.00 | 61 | 1010.0 |
| 20260504040318 | 50 | 215 | 0.0 | 0.0 | 0.00 | 0.00 | 0.00 | 60 | 1010.0 |
| 20260504035816 | 50 | 215 | 0.0 | 0.0 | 0.00 | 0.00 | 0.00 | 59 | 1010.0 |
| 20260504035316 | 50 | 215 | 0.0 | 0.0 | 0.00 | 0.00 | 0.00 | 58 | 1010.0 |
| 20260504034835 | 50 | 215 | 0.0 | 0.0 | 0.00 | 0.00 | 0.00 | 58 | 1010.2 |
| 20260504034313 | 50 | 215 | 0.0 | 0.0 | 0.00 | 0.00 | 0.00 | 58 | 1010.2 |
| 20260504033813 | 50 | 271 | 0.0 | 0.0 | 0.00 | 0.00 | 0.00 | 58 | 1010.3 |
| 20260504033313 | 50 | 254 | 0.0 | 0.0 | 0.00 | 0.00 | 0.00 | 58 | 1010.4 |
| 20260504032813 | 50 | 243 | 0.0 | 0.0 | 0.00 | 0.00 | 0.00 | 59 | 1010.4 |
| 20260504032332 | 50 | 228 | 0.0 | 0.0 | 0.00 | 0.00 | 0.00 | 59 | 1010.5 |
| 20260504031832 | 50 | 256 | 0.0 | 0.0 | 0.00 | 0.00 | 0.00 | 60 | 1010.5 |
| 20260504031330 | 50 | 217 | 0.0 | 0.0 | 0.00 | 0.00 | 0.00 | 61 | 1010.3 |
| 20260504030830 | 50 | 328 | 0.0 | 0.0 | 0.00 | 0.00 | 0.00 | 60 | 1010.5 |
| 20260504030329 | 50 | 268 | 0.0 | 0.0 | 0.00 | 0.00 | 0.00 | 59 | 1010.4 |
| 20260504025825 | 50 | 237 | 0.0 | 0.0 | 0.00 | 0.00 | 0.00 | 58 | 1010.3 |
| 20260504025324 | 50 | 217 | 0.0 | 0.0 | 0.00 | 0.00 | 0.00 | 58 | 1010.3 |
| 20260504024823 | 50 | 240 | 0.0 | 0.0 | 0.00 | 0.00 | 0.00 | 57 | 1010.3 |
| 20260504024342 | 50 | 257 | 0.0 | 0.0 | 0.00 | 0.00 | 0.00 | 57 | 1010.4 |
| 20260504023839 | 50 | 247 | 0.0 | 0.0 | 0.00 | 0.00 | 0.00 | 58 | 1010.5 |
| 20260504023318 | 50 | 251 | 0.0 | 0.0 | 0.00 | 0.00 | 0.00 | 58 | 1010.6 |
| 20260504022838 | 50 | 258 | 0.0 | 0.0 | 0.00 | 0.00 | 0.00 | 58 | 1010.6 |
| 20260504022336 | 50 | 270 | 0.0 | 0.9 | 0.00 | 0.00 | 0.00 | 58 | 1010.6 |
| 20260504021834 | 50 | 206 | 0.0 | 0.9 | 0.00 | 0.00 | 0.00 | 58 | 1010.6 |
| 20260504021354 | 50 | 232 | 0.0 | 0.0 | 0.00 | 0.00 | 0.00 | 58 | 1010.6 |
| 20260504020832 | 50 | 280 | 0.0 | 0.0 | 0.00 | 0.00 | 0.00 | 59 | 1010.6 |
| 20260504020332 | 49 | 256 | 0.0 | 1.7 | 0.00 | 0.00 | 0.00 | 60 | 1010.6 |
| 20260504015850 | 47 | 240 | 0.0 | 1.7 | 0.00 | 0.00 | 0.00 | 64 | 1010.6 |
| 20260504015329 | 46 | 291 | 0.0 | 0.9 | 0.00 | 0.00 | 0.00 | 66 | 1010.6 |
| 20260504014828 | 46 | 250 | 0.0 | 0.9 | 0.00 | 0.00 | 0.00 | 68 | 1010.5 |
| 20260504014325 | 47 | 222 | 0.0 | 0.0 | 0.00 | 0.00 | 0.00 | 68 | 1010.5 |
| 20260504013826 | 47 | 222 | 0.0 | 0.0 | 0.00 | 0.00 | 0.00 | 67 | 1010.4 |
| 20260504013345 | 47 | 222 | 0.0 | 0.0 | 0.00 | 0.00 | 0.00 | 67 | 1010.3 |
| 20260504012821 | 46 | 222 | 0.0 | 0.0 | 0.00 | 0.00 | 0.00 | 68 | 1010.3 |
| 20260504012320 | 46 | 222 | 0.0 | 0.0 | 0.00 | 0.00 | 0.00 | 69 | 1010.3 |
| 20260504011819 | 45 | 206 | 0.0 | 0.0 | 0.00 | 0.00 | 0.00 | 71 | 1010.2 |
| 20260504011339 | 45 | 313 | 0.0 | 0.0 | 0.00 | 0.00 | 0.00 | 71 | 1010.3 |
| 20260504010836 | 45 | 320 | 0.0 | 0.0 | 0.00 | 0.00 | 0.00 | 71 | 1010.4 |
| 20260504010352 | 45 | 320 | 0.0 | 0.0 | 0.00 | 0.00 | 0.00 | 70 | 1010.3 |
| 20260504005850 | 45 | 320 | 0.0 | 0.0 | 0.00 | 0.00 | 0.00 | 70 | 1010.3 |
| 20260504005347 | 45 | 272 | 0.0 | 0.0 | 0.00 | 0.00 | 0.00 | 70 | 1010.2 |
| 20260504004824 | 45 | 272 | 0.0 | 0.0 | 0.00 | 0.00 | 0.00 | 70 | 1010.1 |
| 20260504004321 | 45 | 272 | 0.0 | 0.0 | 0.00 | 0.00 | 0.00 | 69 | 1010.2 |
| 20260504003819 | 45 | 272 | 0.0 | 0.0 | 0.00 | 0.00 | 0.00 | 68 | 1010.0 |
| 20260504003320 | 45 | 272 | 0.0 | 0.0 | 0.00 | 0.00 | 0.00 | 68 | 1009.9 |
| 20260504002818 | 45 | 272 | 0.0 | 0.0 | 0.00 | 0.00 | 0.00 | 67 | 1009.9 |
| 20260504002317 | 46 | 271 | 0.0 | 0.0 | 0.00 | 0.00 | 0.00 | 66 | 1009.8 |
| 20260504001815 | 46 | 262 | 0.0 | 0.0 | 0.00 | 0.00 | 0.00 | 64 | 1009.7 |
| 20260504001313 | 46 | 262 | 0.0 | 0.0 | 0.00 | 0.00 | 0.00 | 63 | 1009.6 |
| 20260504000813 | 47 | 262 | 0.0 | 0.0 | 0.00 | 0.00 | 0.00 | 62 | 1009.6 |
| 20260504000333 | 47 | 262 | 0.0 | 0.0 | 0.00 | 0.00 | 0.00 | 61 | 1009.6 |
| 20260503235831 | 48 | 262 | 0.0 | 0.0 | 0.00 | 0.00 | 0.00 | 60 | 1009.5 |
| 20260503235331 | 49 | 262 | 0.0 | 0.0 | 0.00 | 0.00 | 0.00 | 58 | 1009.5 |
| 20260503234848 | 49 | 262 | 0.0 | 0.0 | 0.00 | 0.00 | 0.00 | 56 | 1009.4 |
| 20260503234346 | 50 | 262 | 0.0 | 0.0 | 0.00 | 0.00 | 0.00 | 55 | 1009.3 |
| 20260503233824 | 51 | 262 | 0.0 | 0.0 | 0.00 | 0.00 | 0.00 | 54 | 1009.2 |
| 20260503233322 | 51 | 262 | 0.0 | 0.0 | 0.00 | 0.00 | 0.00 | 52 | 1009.3 |
| 20260503232840 | 52 | 262 | 0.0 | 0.0 | 0.00 | 0.00 | 0.00 | 51 | 1009.3 |
| 20260503232317 | 52 | 256 | 0.0 | 0.0 | 0.00 | 0.00 | 0.00 | 50 | 1009.3 |